ATLAS AGENA R/B, 27785

Orbit data source: Space-Track

ATLAS AGENA R/B, 27785 is space debris in GEO originally from a launch on Tue, 06 Aug 1968 UTC launched from the Air Force Eastern Test Range (AFETR). Debris objects in space refer to the collection of defunct objects orbiting the Earth. Examples of debris include non-operational satellites, rocket bodies, and fragments generated from explosions, collisions, or faulty payload assembly.

Not visible in the next 10 days
Identifier
27785, 1968-063B
Orbit
GEO
Country
Flag of USUS
Related business
Manufacturer
LMSC
Mission
Spacecraft
Bus & Motor
AGENA D, Unknown motor
Mass
~555 kg wet, 555 kg dry
Launch date (UTC)
1968-08-06 (57 years ago)
Launch vehicle
Unknown
Launch site
Air Force Eastern Test Range (AFETR)
Object type
Payload
Rocket body
Debris
Shape & HBR
Unknown
Radar Cross Section
RCS unknown

Expand to show TLE details & history
Last TLE update: 20 hours ago

TLE from 20 hours ago
0 ATLAS AGENA R/B
1 27785U 68063B   25354.33492116 -.00000050  00000-0  00000+0 0  9995
2 27785   4.8386 268.5521 1019678 260.5399  88.2253  1.01776368 24569
Epoch: 2025-12-20T08:02Z
TLE epoch observation values (Epoch: 2025-12-20T08:02:17.188Z)
Latitude
Longitude
59.14577°
Altitude
35,669.569 km
Speed
3.068 km/s
True Right ascension
17h 55m 31s
True Declination
0° 00' 00"
Sunlit
Object was in daylight at epoch
Visualization orbit readout
Latitude
Unknown
Longitude
Unknown
Altitude
Unknown
Speed
Unknown
Apparent Right ascension
Unknown
Apparent Declination
Unknown
Sunlit
N/A
Visualization observer readout
Local Sidereal Time
02:43:04
Azimuth
Unknown
Elevation
Unknown
Doppler factor
Unknown
Orbital elements
Apogee altitude
39,628.174 km
Perigee altitude
31,114.019 km
Semi-major axis
41,749.233 km
Eccentricity
0.10197
Inclination
4.8386°
RAAN
268.5521°
Arg. of periapsis
260.5399°
True anomaly
99.86992°
Mean anomaly
88.2253°
Eccentric anomaly
94.05301°
Mean motion
0.25443 °/min
Orbital period
1,414.92 mins
BSTAR
0
Loading maneuver chart data...
Computing Atmospheric mass density...
Loading historical data...
Loading historical data...
Loading historical data...
Loading historical data...
Loading historical data...
Loading historical data...
Loading historical data...
Other satellites on launch #63 in the year 1968 (1968-08-06 UTC)

Documentation

Showing up to 5 results
|